C/2011 L1 ( McNaught )

Japanese version
Home page
Updated on October 14, 2011

---------------------------------------------------------------------

* Profile

Discovery Date June 2, 2011
Magnitude 16.9 mag
Discoverer Robert H. McNaught (Siding Spring)

* Pictures

* Orbital Elements

Epoch 2010 Dec. 30.0 TT = JDT 2455560.5
T 2010 Dec. 18.30836 TT                                 MPC
q   2.2424391            (2000.0)            P               Q
n   0.02688675     Peri.  294.47339     -0.48507028     -0.11205910
a  11.0351238      Node   252.36565     +0.07210809     -0.99350363
e   0.7967908      Incl.   65.50930     -0.87149713     -0.01983152
P  36.7
From 120 observations 2011 June 2-Sept. 13, mean residual 0".6.

* Finding Charts

* Magnitudes Graph

        m1 = 11.0 + 5 log d + 10.0 log r

---------------------------------------------------------------------

The orbital elements are published on M.P.E.C. 2011-S56.
The charts are made with StellaNavigator Ver.8 (AstroArts).
The magnitudes graphs are made with Comet for Windows.

---------------------------------------------------------------------

Copyright(C) Seiichi Yoshida (comet@aerith.net). All rights reserved.